STARLINK-1294 (45551 NORAD) Tracking and Keplerian Element Data

This shows tracking and keplerian element data for the satellite.

Feedback or suggestion? Click here.




ElementValue
Catalog45551
NameSTARLINK-1294
Epoch Orbit570
Epoch Day145.58334491
Epoch Year2020
RAAN242.507
Inclination52.9956
Eccentricity0.0008546
Argument of Perigee316.9968
Mean Anonmoly234.4268
Mean Motion15.62795205
Decay Rate9.345E-05
L11 45551U 20025W 20145.58334491 .00009345 00000-0 10751-3 0 9996
L22 45551 52.9956 242.5070 0008546 316.9968 234.4268 15.62795205 5706

Live tracking and technical data element details for STARLINK-1294 (NORAD 45551). STARLINK-1294 can be tracked NOW for your location showing map with azimuth and elevation plus other details from your city location.

Track the satellite on the map from your city or location and see movement details for azimuth, elevation, latitude, longitude, range, height, and movement on the map or in text.







IsCatalogInMostPopularTable: catalog: 45551, numindb: 12
Update: records affected: 1



GetName: 45551 STARLINK-1294

Hit Count: updated at: Tue, 26 May 2020 02:45:25 GMT